CST,Max TemperatureF,Mean TemperatureF,Min TemperatureF,Max Dew PointF,MeanDew PointF,Min DewpointF,Max Humidity, Mean Humidity, Min Humidity, Max Sea Level PressureIn, Mean Sea Level PressureIn, Min Sea Level PressureIn, Max VisibilityMiles, Mean VisibilityMiles, Min VisibilityMiles, Max Wind SpeedMPH, Mean Wind SpeedMPH, Max Gust SpeedMPH,PrecipitationIn, CloudCover, Events, WindDirDegrees
2013-1-1,17,6,-5,5,-1,-9,85,70,49,30.23,30.15,30.07,10,10,10,12,4,,0.00,2,Snow,267
2013-1-2,26,20,14,14,11,5,80,67,47,30.09,30.05,30.01,10,10,7,9,5,,0.00,8,Snow,186
2013-1-3,26,20,14,19,15,7,80,74,69,30.16,30.09,30.00,10,8,4,17,7,23,0.00,6,Snow,266
2013-1-4,32,22,12,18,13,7,86,69,55,30.15,30.05,29.99,10,10,10,15,10,22,0.00,0,,251
2013-1-5,33,19,5,27,15,0,93,77,60,30.16,29.99,29.84,10,10,7,15,2,18,0.00,2,,199
2013-1-6,33,22,10,23,19,7,93,74,60,30.23,30.07,29.85,10,10,7,13,8,18,0.00,3,,284
2013-1-7,39,24,8,25,17,3,93,72,48,30.21,30.03,29.91,10,10,4,21,6,30,0.00,0,,206
2013-1-8,37,24,12,30,22,10,93,84,75,30.07,29.98,29.83,10,6,0,15,3,20,0.00,3,Fog,151
2013-1-9,41,31,21,32,24,18,87,68,49,30.42,30.14,29.83,10,10,10,23,13,30,0.00,1,,259
2013-1-10,37,27,17,30,20,14,93,79,64,30.46,30.36,30.18,10,10,10,6,1,,0.00,0,,96
2013-1-11,42,38,35,41,37,36,100,93,87,29.65,29.60,29.54,3,0,0,9,5,,0.00,8,Fog,140
2013-1-12,42,32,21,41,26,12,100,75,59,30.00,29.77,29.52,10,9,0,25,11,36,0.00,3,Fog,242
2013-1-13,21,16,10,12,8,1,73,66,58,30.18,30.01,29.93,10,10,4,18,9,23,0.00,6,Snow,279
2013-1-14,23,14,6,10,5,1,85,69,50,30.40,30.33,30.18,10,10,10,17,7,24,0.00,1,,252
2013-1-15,32,18,5,14,9,1,86,69,44,30.38,30.24,30.00,10,10,10,15,3,18,0.00,0,,199
2013-1-16,33,26,19,28,19,10,87,71,51,30.08,29.83,29.68,10,10,5,16,9,25,0.00,5,Snow,244
2013-1-17,23,14,6,10,4,-2,85,58,42,30.37,30.27,30.09,10,10,10,14,7,20,0.00,2,,296
2013-1-18,42,24,5,30,19,1,87,74,57,30.38,29.99,29.73,10,9,1,18,5,22,0.00,3,Snow,191
2013-1-19,44,28,12,32,25,-4,93,72,48,29.92,29.70,29.56,10,10,1,36,8,54,0.00,4,Rain-Snow,252
2013-1-20,14,10,5,0,-5,-6,62,53,41,30.27,30.18,29.94,10,10,10,18,12,30,0.00,2,,287
2013-1-21,6,0,-5,-4,-13,-18,72,55,43,30.25,30.16,30.09,10,10,5,21,10,30,0.00,1,,292
2013-1-22,5,-1,-7,-8,-13,-18,72,58,43,30.31,30.28,30.23,10,10,10,14,7,17,0.00,0,,275
2013-1-23,17,8,0,10,0,-8,78,65,45,30.43,30.19,30.05,10,8,3,20,5,28,0.00,6,Snow,282
2013-1-24,14,7,0,9,-3,-8,85,61,45,30.64,30.52,30.32,10,9,1,10,5,,0.00,2,Snow,349
2013-1-25,23,18,12,18,12,5,86,76,63,30.29,30.04,29.89,10,6,1,12,5,16,0.00,7,Snow,235
2013-1-26,26,14,3,14,7,0,85,68,50,30.36,30.30,30.18,10,10,10,10,5,,0.00,2,,214
2013-1-27,33,28,23,32,23,14,100,76,59,30.29,30.12,29.85,10,6,0,15,7,16,0.22,8,Rain-Snow,136
2013-1-28,35,34,32,32,31,30,93,88,81,29.94,29.86,29.77,10,7,1,9,3,,0.00,8,,214
2013-1-29,42,38,33,43,34,30,100,92,87,29.78,29.57,29.50,10,4,0,13,5,,0.38,8,Fog-Rain-Snow,358
2013-1-30,33,25,17,32,24,10,100,87,73,29.54,29.43,29.34,10,3,0,16,8,22,0.01,8,Rain-Snow,335
2013-1-31,17,10,3,10,2,-6,79,66,57,30.07,29.80,29.55,10,9,2,17,13,26,0.00,5,Snow,281